Wind_Speed
4 6 9 11 12 13 11 11 13 21 19 19 17 16 15 13 15 9 12 19 16 15 13 10 9 8 7 8 10 13 14 13 12 11 10 11 12 13 15 15 14 11 11 10 11 12 13 12 11
7 7 6 13 14 14 13 13 14 15 13 15 14 15 15 14 16 17 16 15 15 15 11 10 8 7 8 9 13 14 14 12 10 10 12 13 13 14 15 15 14 12 10 9 8 8 7 8 6
3 8 7 10 14 13 14 13 13 14 13 13 13 12 10 14 15 16 17 15 14 13 11 9 7 9 9 11 14 13 12 9 10 12 14 14 14 14 15 15 14 12 10 9 8 7 6 5 5
6 5 9 11 9 9 14 15 14 14 11 11 11 9 9 12 16 16 15 14 11 11 11 8 8 8 9 12 13 11 9 9 12 14 14 13 13 13 15 15 14 13 11 9 7 5 4 4 6
10 13 15 12 11 13 16 13 12 12 10 10 7 11 12 11 13 15 14 11 10 9 9 8 8 8 10 12 10 8 9 11 13 14 14 14 13 13 13 14 13 12 11 11 10 9 7 7 9
17 26 15 13 14 9 8 10 10 11 12 9 10 13 13 12 11 12 11 9 5 7 9 8 8 10 11 11 10 9 11 13 15 14 13 13 13 13 13 14 14 13 14 13 10 10 10 10 12
9 20 17 9 17 10 12 14 14 11 14 11 10 13 15 11 8 10 8 5 4 6 9 9 11 11 12 11 11 13 14 16 15 15 15 16 14 14 15 15 17 17 19 17 15 17 17 14 13
9 15 16 13 11 10 6 15 16 13 10 10 10 10 11 15 8 6 4 2 3 7 8 11 12 13 13 13 14 15 16 16 15 15 15 16 17 17 19 21 21 21 22 20 19 18 19 17 14
6 14 15 14 15 12 8 11 16 14 11 8 8 8 7 8 10 6 4 3 5 8 10 12 13 14 13 14 15 16 18 17 17 17 19 20 20 20 20 21 20 21 20 19 17 15 15 14 13
6 15 15 14 16 17 10 14 15 14 13 8 4 6 9 8 7 9 7 5 9 11 12 13 13 14 14 14 14 15 15 15 16 16 18 19 18 20 18 20 18 18 17 17 16 15 14 14 14
9 11 11 9 11 18 15 13 12 16 16 13 6 2 6 9 7 10 7 6 11 13 15 15 14 14 15 14 14 15 16 17 15 15 17 16 15 17 18 18 18 17 16 15 14 13 13 13 14
11 12 10 9 15 18 17 14 10 18 21 17 11 4 1 4 6 10 9 8 11 15 16 16 15 15 15 14 14 15 15 16 15 14 15 14 15 15 16 16 15 15 14 13 12 11 10 11 12
17 17 14 10 15 16 14 18 14 17 20 18 15 9 0 7 5 9 10 10 13 17 17 16 17 15 14 14 14 15 15 15 14 13 13 12 12 13 14 15 13 13 12 10 10 9 8 8 7
22 26 21 14 12 16 15 15 15 15 18 18 12 9 5 7 8 10 11 12 17 18 18 17 16 15 15 13 13 14 13 14 14 13 11 10 9 11 14 13 11 11 10 10 9 9 9 8 7
22 26 20 15 3 5 12 12 15 10 19 17 17 9 6 8 11 12 15 16 20 19 18 17 15 15 15 15 13 12 11 12 12 11 9 8 9 9 12 11 9 8 9 9 9 8 8 9 9
25 24 16 15 7 6 10 10 11 12 13 15 16 6 6 9 13 11 14 19 19 17 17 15 15 15 15 15 14 13 11 10 10 9 8 8 8 9 9 7 6 8 8 7 7 6 7 10 10
27 20 16 16 11 9 11 11 12 8 8 12 13 4 3 9 9 11 14 18 19 18 16 14 14 15 16 15 14 13 11 10 10 11 9 9 7 7 5 3 5 7 7 7 6 9 11 12 12
22 20 22 16 11 13 7 17 13 12 7 11 6 5 2 7 9 14 16 17 18 17 15 12 12 15 16 14 13 13 13 11 10 9 8 7 5 3 2 5 8 9 9 10 10 10 12 14 15
22 25 25 19 20 13 13 14 15 14 9 9 9 5 4 5 9 12 16 18 18 15 11 10 11 12 12 13 13 11 10 10 9 7 6 4 2 1 3 6 9 9 9 9 10 10 12 14 16
24 23 25 24 23 20 18 20 16 11 14 10 4 5 7 7 10 11 13 12 13 16 13 10 10 10 12 12 11 11 8 7 7 6 4 4 3 5 6 8 10 8 7 8 8 10 12 13 15
22 18 22 25 30 29 24 22 20 13 15 16 14 11 13 11 10 13 12 14 15 12 11 11 10 10 10 11 9 9 10 10 9 7 6 5 5 7 9 10 10 7 7 5 7 11 10 8 13
24 19 27 28 33 35 31 29 22 18 17 18 16 16 16 15 13 12 12 12 13 13 13 10 9 10 9 9 10 10 9 10 9 10 9 7 6 8 11 11 8 5 4 5 8 10 8 7 10
18 26 26 33 35 36 39 32 23 24 20 17 21 20 20 18 15 14 16 16 16 12 11 12 12 12 11 11 11 11 12 13 12 12 9 9 8 11 14 11 7 3 4 5 6 9 10 10 12
21 31 33 37 41 46 37 34 24 27 16 19 20 17 15 20 19 15 15 16 15 14 14 12 12 12 11 12 12 13 14 12 13 13 11 10 9 12 13 7 7 4 6 7 6 8 10 11 15
27 35 41 43 47 40 34 39 15 19 15 24 22 19 13 13 17 17 13 12 13 13 13 14 13 12 13 14 15 16 17 15 15 13 12 10 11 13 12 10 8 6 8 7 8 11 7 8 12
26 34 42 38 37 34 39 29 13 18 24 26 23 22 24 24 17 13 10 7 5 6 6 8 12 14 15 17 18 20 19 17 16 13 13 12 12 14 14 12 11 8 8 9 10 10 10 9 10
33 34 30 41 40 39 40 28 28 23 25 29 25 25 28 24 20 14 17 11 4 8 12 8 9 10 13 15 17 17 20 19 18 17 16 16 15 15 15 14 13 11 9 9 8 8 8 9 12
38 32 38 43 43 38 35 28 20 19 22 26 25 26 26 23 23 21 19 17 11 10 15 14 11 10 13 13 12 13 18 21 22 22 20 20 19 18 16 18 15 14 12 10 6 7 9 7 9
40 42 43 42 42 37 34 24 21 16 19 27 25 30 30 30 26 23 19 20 14 13 20 19 13 12 10 13 12 12 13 16 19 20 23 24 24 21 20 21 18 16 14 11 8 7 9 9 10
43 45 46 47 37 34 33 26 20 14 17 26 31 33 29 28 28 26 26 22 27 19 20 20 16 15 13 15 13 11 12 13 13 16 21 24 24 24 23 23 19 18 16 14 10 8 11 9 9
Wind_Direction
97 72 60 111 110 98 106 99 97 88 100 110 116 119 114 107 102 102 143 142 131 129 125 121 120 117 109 103 93 87 84 83 89 94 94 95 86 78 79 77 80 86 85 86 81 80 82 84 77
109 74 81 93 105 115 112 101 102 104 96 101 115 124 122 117 114 119 126 129 132 131 129 135 122 119 112 103 92 86 86 95 99 98 95 88 82 80 78 78 81 85 90 85 81 80 71 68 74
141 98 99 120 124 107 120 124 115 113 114 119 127 132 136 130 124 122 123 120 129 129 136 148 129 117 112 98 89 91 101 108 103 96 89 83 83 79 78 80 81 84 89 91 90 86 81 84 79
151 141 116 111 126 113 116 105 104 107 101 115 129 134 139 149 136 132 124 125 130 138 140 146 129 123 105 95 96 109 118 106 99 91 86 84 81 80 78 76 81 80 79 81 82 81 67 34 35
75 119 125 112 120 129 115 106 113 110 111 113 126 133 141 145 150 139 138 137 144 142 136 130 128 117 106 103 115 121 110 103 99 93 87 80 79 81 76 75 77 77 83 80 76 73 66 52 40
90 141 119 89 86 112 104 87 103 124 123 122 128 144 143 152 162 150 148 139 145 147 137 134 122 116 111 114 113 110 102 103 100 96 92 90 84 85 87 88 83 76 74 81 90 78 69 59 61
120 128 129 113 79 85 104 95 87 140 129 122 135 152 146 150 174 159 153 140 138 154 147 134 127 120 110 104 103 100 99 103 104 98 97 95 92 90 89 91 92 85 82 80 74 76 79 79 70
122 135 149 96 82 70 93 95 85 98 108 130 143 158 161 152 168 176 151 129 157 159 147 136 130 122 114 105 100 101 104 108 103 100 103 100 98 94 91 89 90 86 84 79 76 74 71 72 69
175 131 127 162 93 75 69 89 90 85 86 122 142 159 159 168 162 186 191 185 174 161 146 141 132 125 123 110 107 109 110 104 106 109 102 98 99 96 95 95 91 84 85 80 72 66 65 62 57
203 149 137 122 109 94 67 91 105 93 74 88 112 185 178 177 196 193 217 212 176 161 147 147 138 133 128 124 117 115 107 110 105 103 102 101 98 98 96 88 87 84 76 77 72 61 52 47 54
189 158 149 122 141 127 102 72 87 93 69 58 52 93 194 208 220 226 224 216 182 162 155 149 144 138 135 131 126 120 113 109 112 107 107 106 106 100 96 91 90 87 80 75 67 59 55 52 41
187 166 179 154 160 155 120 92 59 83 67 50 31 17 173 184 204 205 190 180 183 167 159 150 144 142 141 138 131 125 120 118 117 113 113 114 103 101 93 88 81 84 83 79 74 70 48 45 44
184 191 189 172 114 125 131 118 94 78 72 53 44 26 39 158 159 186 170 177 163 163 159 151 146 146 140 142 137 133 127 124 121 120 115 110 98 93 88 83 77 72 66 62 60 63 63 47 39
202 200 204 183 100 123 133 128 116 100 68 45 34 33 43 158 148 156 155 168 167 163 161 154 148 147 143 142 146 138 135 130 130 126 121 115 97 88 81 76 68 69 67 57 50 38 29 26 25
202 207 212 183 236 185 123 134 118 110 83 46 13 8 64 166 154 179 163 170 170 167 161 153 147 143 145 147 145 143 140 137 130 128 128 109 100 88 80 69 60 50 39 31 25 24 9 1 11
203 205 194 224 240 265 161 121 120 99 80 53 18 352 78 167 163 180 172 173 171 168 159 153 151 145 146 149 147 146 148 145 137 124 126 116 98 83 74 62 40 26 10 1 1 1 357 358 357
215 202 187 217 258 276 190 149 138 104 81 60 21 12 94 150 172 178 175 172 170 170 164 163 158 154 153 150 146 151 149 145 139 133 129 115 100 95 85 35 9 2 355 349 356 14 15 12 359
229 204 203 225 239 258 228 154 142 114 99 71 51 53 121 153 183 174 172 181 174 175 172 175 166 163 154 150 143 141 154 154 140 138 136 131 130 119 61 348 352 350 360 5 11 18 13 4 353
222 214 205 221 238 238 245 178 167 133 138 118 99 82 123 174 176 178 169 177 178 179 171 170 172 167 162 157 150 150 154 160 155 168 161 144 154 297 337 336 337 342 359 5 3 9 11 2 350
231 219 211 224 239 233 233 213 206 171 143 136 126 256 150 161 164 179 173 173 178 183 184 177 178 173 166 165 166 166 176 182 192 203 198 196 228 283 310 327 327 334 351 358 11 8 4 3 3
224 217 203 217 230 236 239 230 214 210 191 171 163 195 167 165 177 178 184 185 190 194 192 196 200 197 184 177 175 180 191 202 219 230 240 247 267 300 316 315 316 331 337 7 354 358 359 4 10
219 219 212 218 227 231 238 229 214 212 203 183 180 191 168 167 181 176 185 204 181 190 197 203 200 210 204 188 194 201 195 210 223 231 241 256 278 298 309 313 300 316 313 338 350 345 340 323 344
210 221 226 225 232 233 232 238 203 205 208 206 178 193 171 167 175 188 185 192 202 190 200 205 205 202 202 205 207 210 211 214 221 232 231 251 277 296 310 314 285 289 298 313 324 331 328 318 335
209 214 220 221 226 238 233 243 202 200 204 212 179 178 183 171 168 185 207 198 195 192 195 204 210 209 201 207 218 222 225 226 226 232 241 260 279 294 318 294 270 257 279 305 315 313 318 329 336
217 211 218 220 225 251 236 242 204 211 204 190 161 166 177 183 180 179 195 214 204 198 201 204 210 217 220 222 222 229 233 231 229 233 243 263 282 294 305 279 240 247 286 285 302 296 318 329 331
239 230 230 238 243 251 237 243 207 199 186 199 176 175 191 192 190 183 180 189 216 228 227 246 242 237 236 234 230 231 237 237 238 235 242 258 270 282 285 261 234 240 259 276 291 304 312 322 344
234 233 244 240 245 250 259 257 251 231 205 201 204 211 200 197 198 187 186 189 229 271 246 243 237 232 229 227 233 238 240 240 235 233 240 253 257 262 268 242 231 247 242 260 286 303 318 332 347
228 229 234 237 241 249 253 251 254 235 220 218 214 210 194 172 174 183 190 195 223 276 236 224 226 258 242 222 227 237 236 239 242 247 244 247 249 252 250 231 232 242 243 244 261 289 302 323 348
229 231 231 233 239 247 260 256 260 250 223 218 221 205 195 184 176 180 193 217 228 242 229 220 227 242 233 226 227 235 240 237 239 243 245 242 243 246 229 224 232 237 239 241 259 284 306 302 330
227 227 238 244 246 253 258 255 256 244 218 217 218 215 211 208 193 187 200 220 212 235 248 220 234 239 219 222 225 231 243 249 253 248 242 243 235 239 222 221 232 237 236 241 251 266 283 302 321
Height
5876 5877 5877 5875 5880 5878 5878 5880 5880 5879 5879 5877 5880 5881 5881 5881 5882 5886 5884 5886 5887 5888 5890 5891 5892 5892 5893 5893 5893 5894 5894 5895 5897 5900 5901 5901 5901 5901 5901 5901 5901 5902 5903 5904 5905 5906 5907 5907 5907
5878 5878 5879 5878 5879 5879 5879 5880 5880 5879 5880 5882 5882 5882 5882 5882 5883 5886 5888 5889 5889 5889 5892 5893 5893 5894 5895 5895 5895 5896 5897 5899 5901 5902 5902 5902 5902 5904 5903 5904 5905 5905 5906 5906 5907 5908 5908 5909 5909
5880 5880 5882 5880 5879 5880 5880 5879 5879 5880 5881 5883 5884 5885 5885 5884 5885 5887 5888 5889 5890 5891 5893 5894 5895 5895 5897 5897 5897 5899 5901 5903 5903 5903 5902 5903 5904 5905 5906 5907 5906 5906 5907 5908 5909 5909 5909 5909 5909
5883 5884 5884 5882 5881 5881 5880 5880 5880 5880 5883 5883 5884 5886 5887 5887 5887 5888 5889 5890 5892 5894 5895 5895 5896 5898 5899 5899 5900 5903 5905 5904 5904 5903 5904 5905 5906 5907 5908 5908 5908 5908 5909 5909 5909 5909 5909 5909 5909
5884 5886 5886 5884 5882 5881 5880 5880 5879 5880 5882 5883 5885 5887 5887 5888 5889 5889 5891 5893 5893 5894 5895 5896 5897 5899 5900 5901 5903 5905 5905 5905 5904 5904 5906 5907 5908 5909 5910 5910 5910 5909 5910 5910 5910 5910 5910 5909 5910
5883 5885 5889 5886 5885 5883 5883 5882 5881 5881 5882 5884 5885 5888 5888 5889 5891 5892 5893 5894 5895 5895 5896 5897 5899 5900 5901 5903 5904 5905 5905 5905 5905 5907 5908 5909 5910 5910 5911 5911 5911 5911 5911 5911 5910 5911 5911 5911 5910
5886 5886 5889 5889 5886 5885 5883 5882 5882 5883 5883 5885 5887 5888 5889 5891 5893 5893 5894 5895 5896 5897 5897 5898 5900 5901 5902 5903 5904 5904 5905 5906 5907 5909 5910 5911 5912 5912 5913 5913 5912 5912 5913 5913 5914 5913 5913 5913 5912
5886 5888 5890 5890 5888 5885 5884 5882 5883 5884 5885 5887 5887 5889 5889 5890 5893 5895 5896 5896 5897 5897 5898 5899 5901 5902 5903 5904 5905 5906 5907 5907 5909 5911 5913 5914 5914 5915 5916 5915 5915 5915 5915 5915 5916 5916 5916 5915 5915
5885 5888 5890 5890 5887 5887 5885 5884 5884 5885 5886 5887 5889 5890 5891 5892 5893 5895 5896 5896 5897 5899 5900 5901 5902 5903 5904 5906 5907 5908 5909 5910 5911 5913 5915 5916 5917 5918 5918 5918 5918 5918 5918 5918 5918 5918 5918 5917 5917
5883 5887 5890 5888 5885 5886 5887 5885 5885 5885 5885 5887 5888 5890 5890 5892 5894 5895 5896 5896 5898 5899 5900 5902 5904 5904 5906 5908 5909 5910 5911 5913 5914 5916 5917 5918 5920 5921 5920 5920 5921 5920 5921 5921 5920 5920 5919 5919 5919
5882 5886 5888 5887 5886 5883 5886 5887 5886 5884 5885 5887 5889 5890 5891 5892 5893 5895 5896 5897 5898 5900 5901 5903 5905 5907 5908 5910 5911 5912 5913 5915 5916 5918 5919 5920 5921 5922 5922 5923 5923 5923 5923 5923 5922 5922 5922 5921 5920
5881 5883 5886 5888 5887 5883 5883 5886 5887 5884 5883 5886 5888 5890 5890 5890 5892 5893 5895 5897 5900 5901 5903 5905 5907 5908 5910 5912 5913 5914 5915 5916 5918 5919 5920 5922 5922 5923 5923 5924 5924 5925 5925 5925 5925 5924 5922 5922 5921
5878 5880 5882 5887 5888 5887 5883 5884 5887 5885 5884 5887 5888 5889 5890 5890 5891 5893 5895 5898 5900 5902 5904 5906 5907 5910 5912 5913 5915 5916 5917 5918 5919 5920 5921 5922 5923 5924 5924 5925 5926 5926 5926 5926 5925 5924 5925 5923 5921
5875 5874 5877 5885 5887 5887 5888 5884 5885 5885 5886 5887 5887 5886 5887 5889 5891 5893 5895 5898 5901 5903 5905 5907 5909 5910 5912 5914 5916 5917 5918 5919 5920 5921 5922 5923 5924 5925 5924 5925 5927 5928 5927 5926 5925 5924 5922 5922 5921
5872 5874 5875 5882 5886 5888 5887 5886 5886 5886 5884 5887 5887 5886 5886 5889 5891 5893 5894 5898 5901 5903 5906 5907 5909 5911 5912 5914 5916 5917 5919 5920 5921 5922 5923 5924 5924 5925 5925 5925 5927 5927 5926 5925 5924 5923 5922 5921 5920
5869 5873 5876 5877 5884 5885 5887 5888 5886 5886 5886 5884 5886 5886 5885 5888 5891 5894 5895 5898 5902 5905 5906 5908 5910 5911 5913 5914 5916 5918 5920 5921 5922 5922 5924 5925 5925 5925 5925 5926 5927 5926 5926 5925 5924 5924 5923 5921 5920
5866 5871 5874 5875 5878 5880 5886 5886 5885 5885 5886 5883 5885 5886 5886 5888 5891 5895 5897 5899 5902 5905 5907 5909 5910 5912 5913 5915 5916 5918 5920 5921 5922 5923 5925 5925 5926 5926 5926 5926 5927 5926 5926 5925 5924 5925 5924 5922 5920
5863 5868 5871 5873 5877 5878 5882 5883 5883 5884 5885 5883 5885 5886 5886 5888 5891 5893 5896 5899 5902 5905 5907 5909 5910 5912 5913 5915 5916 5918 5920 5922 5922 5924 5925 5925 5926 5927 5926 5926 5926 5925 5924 5924 5924 5924 5924 5921 5919
5861 5864 5868 5870 5872 5874 5877 5880 5882 5879 5882 5882 5884 5886 5887 5888 5890 5893 5895 5899 5901 5905 5908 5910 5911 5913 5913 5915 5916 5917 5920 5922 5923 5925 5925 5925 5926 5926 5926 5926 5925 5924 5924 5924 5923 5923 5921 5920 5918
5856 5860 5866 5868 5870 5871 5873 5876 5878 5880 5878 5880 5883 5887 5887 5887 5890 5893 5896 5899 5902 5904 5907 5910 5912 5913 5913 5914 5915 5916 5918 5920 5922 5923 5924 5925 5926 5926 5926 5924 5924 5924 5924 5923 5922 5921 5920 5919 5916
5850 5858 5863 5866 5865 5866 5869 5871 5875 5878 5876 5875 5878 5885 5886 5887 5889 5892 5894 5898 5900 5904 5907 5909 5911 5912 5913 5914 5915 5915 5917 5919 5921 5923 5925 5925 5925 5925 5924 5923 5923 5922 5922 5922 5921 5919 5918 5918 5916
5846 5853 5856 5858 5859 5860 5863 5863 5868 5873 5876 5875 5875 5881 5885 5885 5888 5891 5894 5896 5898 5901 5904 5907 5909 5911 5912 5913 5914 5915 5917 5919 5921 5923 5925 5924 5923 5923 5923 5922 5922 5921 5921 5920 5919 5918 5917 5916 5915
5843 5846 5851 5853 5853 5855 5856 5857 5864 5867 5871 5873 5873 5879 5882 5884 5886 5889 5891 5895 5897 5898 5902 5905 5906 5908 5911 5912 5913 5915 5916 5917 5919 5921 5922 5922 5922 5922 5921 5920 5920 5920 5920 5920 5919 5918 5916 5914 5913
5836 5837 5841 5844 5846 5840 5850 5852 5857 5862 5870 5873 5870 5875 5880 5882 5885 5888 5891 5893 5895 5897 5899 5902 5905 5906 5909 5911 5912 5914 5914 5915 5916 5918 5919 5919 5919 5919 5918 5919 5919 5918 5919 5918 5917 5917 5916 5913 5911
5825 5829 5829 5832 5831 5831 5846 5845 5854 5859 5865 5870 5868 5872 5877 5880 5883 5886 5889 5892 5894 5896 5898 5899 5902 5904 5907 5908 5910 5911 5911 5912 5913 5914 5915 5915 5916 5915 5916 5917 5917 5917 5916 5915 5915 5915 5914 5913 5911
5823 5821 5820 5823 5827 5830 5836 5835 5847 5857 5861 5866 5868 5869 5872 5874 5878 5883 5887 5889 5892 5894 5896 5898 5900 5901 5902 5903 5904 5906 5907 5908 5909 5910 5911 5912 5912 5913 5914 5914 5915 5915 5915 5914 5913 5913 5912 5911 5910
5814 5815 5825 5820 5822 5826 5826 5834 5840 5849 5855 5861 5865 5867 5869 5872 5874 5879 5882 5886 5888 5890 5893 5894 5895 5896 5897 5898 5898 5900 5903 5905 5905 5906 5907 5908 5909 5910 5910 5911 5912 5913 5913 5912 5911 5910 5910 5909 5908
5806 5813 5812 5811 5813 5817 5820 5826 5833 5843 5851 5856 5860 5863 5868 5870 5871 5874 5877 5881 5884 5886 5889 5890 5892 5893 5893 5893 5894 5894 5896 5899 5901 5903 5903 5904 5904 5905 5906 5908 5909 5910 5911 5910 5909 5909 5909 5907 5906
5799 5801 5802 5804 5807 5814 5817 5823 5830 5838 5847 5851 5856 5861 5865 5867 5869 5872 5874 5877 5879 5881 5883 5886 5888 5889 5890 5891 5891 5892 5893 5894 5895 5896 5898 5899 5899 5902 5902 5904 5905 5907 5908 5907 5907 5907 5907 5906 5903
5787 5791 5790 5795 5807 5811 5813 5817 5825 5832 5839 5846 5852 5855 5861 5864 5865 5866 5869 5869 5871 5875 5879 5882 5883 5885 5885 5887 5888 5889 5889 5890 5891 5891 5891 5893 5895 5897 5898 5900 5902 5904 5905 5905 5905 5905 5904 5902 5900